sat.trackr.live / text

‹ back to catalog

STARLINK-33973

NORAD 63894 · 2025-095E

PAYLOAD ACTIVE UNKNOWN

§ Identity

Operator
Country
US
Launch date
2025-05-10
Launch site
AFETR
Launch vehicle
Mass (kg)
RCS (m²)

Purposes: comms

External: N2YO · Heavens-Above · Gunter

§ Orbital elements

Epoch: 2026-05-24T22:29:28.667040Z

Period
94.27 min
Inclination
42.9973°
Eccentricity
0.0000550
Mean motion
15.27601749 rev/d
Perigee alt
482.6 km
Apogee alt
483.4 km
Semi-major
6,861.1 km
B*
6.5532e-4
RAAN
105.2000°
Arg perigee
253.7160°
Mean anomaly
106.3631°
Rev number
5,945

§ Raw data

STARLINK-339731 63894U 25095E   26144.93713735  .00017826  00000+0  65532-3 0  99932 63894  42.9973 105.2000 0000550 253.7160 106.3631 15.27601749 59453

JSON: /api/v1/satellites/63894 · /tle

For live sub-satellite position, see the globe view (requires WebGL).

§ Visibility from observer

Set your observer location to see the next 7 days of passes ≥ 10°. The values pass through the URL so the page stays shareable.

No JS? Fill the form by hand. The geolocation button needs JavaScript.